{"data":{"norad_id":67812,"epoch":"2026-05-25T04:00:03.998880Z","epoch_age_seconds":60876,"freshness":"FRESH","line1":"1 67812U 26032R   26145.16671295 -.00050559  00000+0 -15732-2 0  9997","line2":"2 67812  97.2853 333.3158 0001484  94.1767 306.9117 15.33465127  5859","mean_motion":15.33465127,"eccentricity":0.0001484,"inclination_deg":97.2853,"raan_deg":333.3158,"arg_perigee_deg":94.1767,"mean_anomaly_deg":306.9117,"bstar":-0.0015732,"rev_number":585,"period_min":93.904972121352,"perigee_km":464.46769809043,"apogee_km":466.4988845929,"semimajor_km":6843.6202913417,"source":"CELESTRAK","updated_at":"2026-05-25T13:38:21.695022Z"}}